| time (UTC) | temp C | wind direction | speed KPH | gust KPH | rain 1hr cm | rain 24hr cm | rain mn cm | humidity % | barometer mb |
| 20260506134507 | 17 | 130 | 4.8 | 16.1 | 0.00 | 0.00 | 0.00 | 56 | 1027.5 |
| 20260506133003 | 17 | 121 | 6.4 | 20.9 | 0.00 | 0.00 | 0.00 | 55 | 1027.5 |
| 20260506131501 | 17 | 142 | 6.4 | 16.1 | 0.00 | 0.00 | 0.00 | 55 | 1027.3 |
| 20260506130030 | 17 | 134 | 6.4 | 14.5 | 0.00 | 0.00 | 0.00 | 56 | 1027.2 |
| 20260506124529 | 17 | 128 | 6.4 | 14.5 | 0.00 | 0.00 | 0.00 | 58 | 1027.2 |
| 20260506123027 | 17 | 132 | 4.8 | 11.3 | 0.00 | 0.00 | 0.00 | 60 | 1027.2 |
| 20260506121525 | 17 | 128 | 6.4 | 12.9 | 0.00 | 0.00 | 0.00 | 60 | 1027.0 |
| 20260506120027 | 17 | 134 | 4.8 | 9.7 | 0.00 | 0.00 | 0.00 | 60 | 1026.9 |
| 20260506114532 | 18 | 132 | 6.4 | 11.3 | 0.00 | 0.00 | 0.00 | 59 | 1026.8 |
| 20260506113022 | 18 | 134 | 6.4 | 11.3 | 0.00 | 0.00 | 0.00 | 58 | 1026.7 |
| 20260506111520 | 18 | 138 | 6.4 | 14.5 | 0.00 | 0.00 | 0.00 | 57 | 1026.6 |
| 20260506110020 | 18 | 125 | 4.8 | 12.9 | 0.00 | 0.00 | 0.00 | 56 | 1026.5 |
| 20260506104520 | 18 | 126 | 8.0 | 16.1 | 0.00 | 0.00 | 0.00 | 56 | 1026.5 |
| 20260506103016 | 19 | 119 | 8.0 | 17.7 | 0.00 | 0.00 | 0.00 | 56 | 1026.3 |
| 20260506101516 | 19 | 138 | 9.7 | 14.5 | 0.00 | 0.00 | 0.00 | 55 | 1026.2 |
| 20260506100014 | 19 | 140 | 6.4 | 12.9 | 0.00 | 0.00 | 0.00 | 55 | 1026.0 |
| 20260506094514 | 20 | 149 | 4.8 | 14.5 | 0.00 | 0.00 | 0.00 | 55 | 1025.8 |
| 20260506093052 | 20 | 142 | 6.4 | 12.9 | 0.00 | 0.00 | 0.00 | 54 | 1025.7 |
| 20260506091544 | 20 | 136 | 6.4 | 14.5 | 0.00 | 0.00 | 0.00 | 53 | 1025.5 |
| 20260506090039 | 21 | 152 | 4.8 | 14.5 | 0.00 | 0.00 | 0.00 | 53 | 1025.5 |
| 20260506084539 | 21 | 121 | 8.0 | 14.5 | 0.00 | 0.00 | 0.00 | 52 | 1025.5 |
| 20260506083038 | 21 | 117 | 8.0 | 16.1 | 0.00 | 0.00 | 0.00 | 49 | 1025.4 |
| 20260506081537 | 22 | 102 | 6.4 | 14.5 | 0.00 | 0.00 | 0.00 | 48 | 1025.4 |
| 20260506073033 | 22 | 105 | 9.7 | 16.1 | 0.00 | 0.00 | 0.00 | 48 | 1025.3 |
| 20260506071533 | 22 | 143 | 14.5 | 25.7 | 0.00 | 0.00 | 0.00 | 48 | 1025.3 |
| 20260506061530 | 22 | 80 | 4.8 | 12.9 | 0.00 | 0.00 | 0.00 | 48 | 1025.3 |
| 20260506044510 | 22 | 146 | 4.8 | 17.7 | 0.00 | 0.00 | 0.00 | 50 | 1025.8 |
| 20260506043010 | 22 | 101 | 6.4 | 19.3 | 0.00 | 0.00 | 0.00 | 49 | 1026.0 |
| 20260506041506 | 21 | 57 | 6.4 | 12.9 | 0.00 | 0.00 | 0.00 | 52 | 1026.2 |
| 20260506040001 | 21 | 50 | 4.8 | 14.5 | 0.00 | 0.00 | 0.00 | 52 | 1026.5 |
| 20260506034613 | 21 | 18 | 6.4 | 20.9 | 0.00 | 0.00 | 0.00 | 52 | 1026.7 |
| 20260506033055 | 21 | 81 | 4.8 | 14.5 | 0.00 | 0.00 | 0.00 | 52 | 1026.7 |
| 20260506031600 | 20 | 15 | 4.8 | 17.7 | 0.00 | 0.00 | 0.00 | 55 | 1026.8 |
| 20260506030043 | 20 | 74 | 4.8 | 16.1 | 0.00 | 0.00 | 0.00 | 57 | 1027.0 |
| 20260506024540 | 19 | 96 | 4.8 | 16.1 | 0.00 | 0.00 | 0.00 | 58 | 1026.9 |
| 20260506023037 | 19 | 39 | 3.2 | 14.5 | 0.00 | 0.00 | 0.00 | 59 | 1027.1 |
| 20260506021533 | 18 | 337 | 4.8 | 17.7 | 0.00 | 0.00 | 0.00 | 61 | 1027.1 |
| 20260506020027 | 17 | 137 | 4.8 | 16.1 | 0.00 | 0.00 | 0.00 | 63 | 1027.1 |
| 20260506014518 | 17 | 158 | 4.8 | 17.7 | 0.00 | 0.00 | 0.00 | 66 | 1027.2 |
| 20260506013012 | 16 | 155 | 4.8 | 14.5 | 0.00 | 0.00 | 0.00 | 68 | 1027.2 |
| 20260506011508 | 16 | 117 | 3.2 | 14.5 | 0.00 | 0.00 | 0.00 | 70 | 1027.2 |
| 20260506010011 | 15 | 22 | 6.4 | 17.7 | 0.00 | 0.00 | 0.00 | 71 | 1027.0 |
| 20260506004558 | 15 | 96 | 4.8 | 12.9 | 0.00 | 0.00 | 0.00 | 73 | 1027.0 |
| 20260506003052 | 14 | 101 | 6.4 | 12.9 | 0.00 | 0.00 | 0.00 | 76 | 1026.9 |
| 20260506001547 | 13 | 101 | 4.8 | 17.7 | 0.00 | 0.00 | 0.00 | 78 | 1026.8 |
| 20260506000042 | 12 | 109 | 6.4 | 14.5 | 0.00 | 0.00 | 0.00 | 78 | 1026.6 |
| 20260505234542 | 12 | 65 | 6.4 | 14.5 | 0.00 | 0.00 | 0.00 | 78 | 1026.4 |
| 20260505233035 | 12 | 355 | 4.8 | 12.9 | 0.00 | 0.00 | 0.00 | 78 | 1026.2 |
| 20260505231544 | 12 | 76 | 6.4 | 14.5 | 0.00 | 0.00 | 0.00 | 78 | 1026.0 |
| 20260505230032 | 12 | 90 | 6.4 | 14.5 | 0.00 | 0.00 | 0.00 | 78 | 1025.7 |
| 20260505224523 | 12 | 23 | 4.8 | 12.9 | 0.00 | 0.00 | 0.00 | 78 | 1025.7 |
| 20260505223021 | 12 | 79 | 4.8 | 12.9 | 0.00 | 0.00 | 0.00 | 77 | 1025.6 |
| 20260505221517 | 12 | 136 | 4.8 | 11.3 | 0.00 | 0.00 | 0.00 | 76 | 1025.4 |
| 20260505220014 | 12 | 46 | 6.4 | 12.9 | 0.00 | 0.00 | 0.00 | 76 | 1025.3 |
| 20260505214508 | 12 | 102 | 6.4 | 17.7 | 0.00 | 0.00 | 0.00 | 76 | 1025.3 |
| 20260505213006 | 12 | 25 | 4.8 | 14.5 | 0.00 | 0.00 | 0.00 | 76 | 1025.2 |
| 20260505211503 | 13 | 206 | 6.4 | 14.5 | 0.00 | 0.00 | 0.00 | 75 | 1024.9 |
| 20260505210001 | 13 | 84 | 6.4 | 14.5 | 0.00 | 0.00 | 0.00 | 75 | 1024.9 |
| 20260505204601 | 13 | 109 | 6.4 | 17.7 | 0.00 | 0.00 | 0.00 | 74 | 1024.9 |
| 20260505203057 | 13 | 97 | 4.8 | 12.9 | 0.00 | 0.00 | 0.00 | 74 | 1024.8 |
| 20260505201556 | 13 | 127 | 6.4 | 16.1 | 0.00 | 0.00 | 0.00 | 73 | 1024.6 |
| 20260505200049 | 13 | 133 | 8.0 | 20.9 | 0.00 | 0.00 | 0.00 | 73 | 1024.6 |
| 20260505194542 | 13 | 77 | 4.8 | 12.9 | 0.00 | 0.00 | 0.00 | 72 | 1024.6 |
| 20260505193041 | 13 | 14 | 6.4 | 16.1 | 0.00 | 0.00 | 0.00 | 72 | 1024.7 |
| 20260505191542 | 13 | 82 | 3.2 | 11.3 | 0.00 | 0.00 | 0.00 | 72 | 1024.6 |
| 20260505190044 | 13 | 92 | 3.2 | 14.5 | 0.00 | 0.00 | 0.00 | 71 | 1024.6 |
| 20260505184511 | 13 | 122 | 3.2 | 12.9 | 0.00 | 0.00 | 0.00 | 71 | 1024.6 |
| 20260505183011 | 14 | 58 | 3.2 | 11.3 | 0.00 | 0.00 | 0.00 | 70 | 1024.8 |
| 20260505181506 | 14 | 120 | 4.8 | 17.7 | 0.00 | 0.00 | 0.00 | 70 | 1024.8 |
| 20260505180009 | 14 | 67 | 6.4 | 20.9 | 0.00 | 0.00 | 0.00 | 70 | 1024.7 |
| 20260505174507 | 15 | 98 | 4.8 | 16.1 | 0.00 | 0.00 | 0.00 | 70 | 1024.7 |
| 20260505173004 | 15 | 64 | 8.0 | 17.7 | 0.00 | 0.00 | 0.00 | 71 | 1024.6 |
| 20260505171502 | 14 | 110 | 8.0 | 20.9 | 0.00 | 0.00 | 0.00 | 72 | 1024.5 |
| 20260505170002 | 14 | 123 | 6.4 | 14.5 | 0.00 | 0.00 | 0.00 | 74 | 1024.5 |
| 20260505164622 | 13 | 90 | 4.8 | 12.9 | 0.00 | 0.00 | 0.00 | 76 | 1024.6 |
| 20260505163107 | 13 | 78 | 3.2 | 9.7 | 0.00 | 0.00 | 0.00 | 77 | 1024.5 |
| 20260505161614 | 13 | 109 | 0.0 | 3.2 | 0.00 | 0.00 | 0.00 | 78 | 1024.3 |
| 20260505153056 | 13 | 120 | 0.0 | 4.8 | 0.00 | 0.00 | 0.00 | 77 | 1024.3 |
| 20260505151554 | 14 | 117 | 0.0 | 6.4 | 0.00 | 0.00 | 0.00 | 77 | 1024.3 |